SCP
0 0 0 0 0 0 0 0 0 0 0 0 0 0 0 0 0 0 0 0 0 0 0 0 0 0 0 0 0 0 0 0 0 0 0 0 0 0 0 0 0 0 0
0 0 0 0 0 0 0 0 0 0 0 0 0 0 0 0 0 0 0 0 0 0 0 0 0 0 0 0 0 0 0 0 0 0 0 0 0 0 0 0 0 0 0
0 0 0 0 0 0 0 0 0 0 0 0 0 0 0 0 0 0 0 0 0 0 0 0 0 0 0 0 0 0 0 0 0 0 0 0 0 0 0 0 0 0 0
0 0 0 0 0 0 0 0 0 0 0 0 0 0 0 0 0 0 0 0 0 0 0 0 0 0 0 0 0 0 0 0 0 0 0 0 0 0 0 0 0 0 0
0 0 0 0 0 0 0 0 0 0 0 0 0 0 0 0 0 0 0 0 0 0 0 0 0 0 0 0 0 0 0 0 0 0 0 0 0 0 0 0 0 0 0
0 0 0 0 0 0 0 0 0 0 0 0 0 0 0 0 0 0 0 0 0 0 0 0 0 0 0 0 0 0 0 0 0 0 0 0 0 0 0 0 0 0 0
0 0 0 0 0 0 0 0 0 0 0 0 0 0 0 0 0 0 0 0 0 0 0 0 0 0 0 0 0 0 0 0 0 0 0 0 0 0 0 0 0 0 0
0 0 0 0 0 0 0 0 0 0 0 0 0 0 0 0 0 0 0 0 0 0 0 0 0 0 0 0 0 0 0 0 0 0 0 0 0 0 0 0 0 0 0
0 0 0 0 0 0 0 0 0 0 0 0 0 0 0 0 0 0 0 0 0 0 0 0 0 0 0 0 0 0 0 0 0 0 0 0 0 0 0 0 0 0 0
0 0 0 0 0 0 0 0 0 0 0 0 0 0 0 0 0 0 0 0 0 0 0 0 0 0 0 0 0 0 0 0 0 0 0 0 0 0 0 0 0 0 0
0 0 0 0 0 0 0 0 0 0 0 0 0 0 0 0 0 0 0 0 0 0 0 0 0 0 0 0 0 0 0 0 0 0 0 0 0 0 0 0 0 0 0
0 0 0 0 0 0 0 0 0 0 0 0 0 0 0 0 0 0 0 0 0 0 0 0 0 0 0 0 0 0 0 0 0 0 0 0 0 0 0 0 0 0 0
0 0 0 0 0 0 0 0 0 0 0 0 0 0 0 0 0 0 0 0 0 0 0 0 0 0 0 0 0 0 0 0 0 0 0 0 0 0 0 0 0 0 0
0 0 0 0 0 0 0 0 0 0 0 0 0 0 0 0 0 0 0 0 0 0 0 0 0 0 0 0 0 0 0 0 0 0 0 0 0 0 0 0 0 0 0
0 0 0 0 0 0 0 0 0 0 0 0 0 0 0 0 0 0 0 0 0 0 0 0 0 0 0 0 0 0 0 0 0 0 0 0 0 0 0 0 0 0 0
0 0 0 0 0 0 0 0 0 0 0 0 0 0 0 0 0 0 0 0 0 0 0 0 0 0 0 0 0 0 0 0 0 0 0 0 0 0 0 0 0 0 0
0 0 0 0 0 0 0 0 0 0 0 0 0 0 0 0 0 0 0 0 0 0 0 0 0 0 0 0 0 0 0 0 0 0 0 0 0 0 0 0 0 0 0
0 0 0 0 0 0 0 0 0 0 0 0 0 0 0 0 0 0 0 0 0 0 0 0 0 0 0 0 0 0 0 0 0 0 0 0 0 0 0 0 0 0 0
0 0 0 0 0 0 0 0 0 0 0 0 0 0 0 0 0 0 0 0 0 0 0 0 0 0 0 0 0 0 0 0 0 0 0 0 0 0 0 0 0 0 0
0 0 0 0 0 0 0 0 0 0 0 0 0 0 0 0 0 0 0 0 0 0 0 0 0 0 0 0 0 0 0 0 0 0 0 0 0 0 0 0 0 0 0
0 0 0 0 0 0 0 0 0 0 0 0 0 0 0 0 0 0 0 0 0 0 0 0 0 0 0 0 0 0 0 0 0 0 0 0 0 0 0 0 0 0 0
0 0 0 0 0 0 0 0 0 0 0 0 0 0 0 0 0 0 0 0 0 0 0 0 0 0 0 0 0 0 0 0 0 0 0 0 0 0 0 0 0 0 0
0 0 0 0 0 0 0 0 0 0 0 0 0 0 0 0 0 0 0 0 0 0 0 0 0 0 0 0 0 0 0 0 0 0 0 0 0 0 0 0 0 0 0
0 0 0 0 0 0 0 0 0 0 0 0 0 0 0 0 0 0 0 0 0 0 0 0 0 0 0 0 0 0 0 0 0 0 0 0 0 0 0 0 0 0 0
0 0 0 0 0 0 0 0 0 0 0 0 0 0 0 0 0 0 0 0 0 0 0 0 0 0 0 0 0 0 0 0 0 0 0 0 0 0 0 0 0 0 0
0 0 0 0 0 0 0 0 0 0 0 0 0 0 0 0 0 0 0 0 0 0 0 0 0 0 0 0 0 0 0 0 0 0 0 0 0 0 0 0 0 0 0
Wind_Speed_500mb
15 24 28 33 37 41 42 43 44 43 44 50 51 50 51 50 49 47 45 43 38 41 40 39 40 41 38 42 45 49 53 56 54 62 67 68 74 71 73 73 73 72 73
10 20 26 35 40 42 44 44 44 41 42 50 49 51 49 52 48 47 47 46 44 43 47 47 48 50 47 51 53 57 61 62 65 70 69 64 66 80 74 69 70 66 69
9 8 14 20 26 36 45 49 49 43 39 42 40 44 49 52 44 45 44 43 41 42 44 49 54 55 59 58 61 64 67 71 79 69 72 41 35 47 61 57 59 64 72
10 11 9 12 16 18 23 33 45 47 42 39 34 39 39 40 37 33 35 38 37 34 35 40 45 47 49 52 52 54 54 61 72 74 76 79 85 70 55 55 57 76 81
14 14 15 16 14 13 11 13 24 35 40 39 36 34 35 36 30 26 25 26 30 33 34 35 38 41 43 48 51 52 55 57 68 69 76 76 79 82 85 85 76 87 94
19 20 22 22 21 21 20 19 16 18 22 26 26 24 20 18 22 20 22 26 27 30 34 35 36 39 43 50 52 54 60 62 70 70 75 78 80 80 80 91 98 100 101
23 22 25 32 32 30 29 29 26 26 21 16 13 12 10 12 11 11 14 15 17 20 25 30 35 40 46 51 55 56 62 64 68 72 74 77 84 77 84 89 99 103 106
23 26 31 35 39 39 39 38 37 37 32 28 25 21 18 14 11 8 6 6 11 14 18 20 24 27 32 37 44 51 57 64 68 71 70 77 79 81 84 89 90 95 97
26 26 30 34 36 36 37 35 33 34 31 27 24 21 17 13 9 7 7 9 13 18 23 28 31 34 38 41 46 50 54 58 62 67 72 77 80 81 87 86 86 85 92
29 29 31 34 35 34 34 32 30 28 27 24 20 16 12 9 6 7 9 12 17 21 24 27 30 34 37 41 45 49 52 59 63 67 71 75 76 80 79 85 83 83 90
34 34 35 35 34 33 31 30 27 24 20 18 16 12 9 8 9 11 14 18 21 25 29 33 37 41 44 46 50 52 56 59 63 65 69 74 75 79 79 79 84 82 82
36 37 37 35 34 32 32 28 25 19 16 14 12 10 10 11 12 15 19 23 28 32 36 41 45 48 51 55 58 62 64 68 72 73 76 77 77 80 80 80 82 84 86
38 40 39 37 36 33 29 25 21 17 15 13 11 10 10 13 17 22 26 30 34 38 43 48 52 55 57 60 62 66 69 72 75 77 80 83 82 84 83 81 81 83 84
45 41 38 39 38 34 28 23 19 16 12 9 6 6 10 15 20 24 29 34 38 43 46 50 53 56 58 62 66 69 72 75 78 80 82 83 84 84 84 80 76 75 80
48 46 47 44 39 33 28 24 20 15 10 5 3 7 13 20 26 30 34 38 42 45 49 52 53 55 58 63 68 71 74 77 79 78 79 82 83 83 78 72 77 76 81
52 50 51 46 41 35 30 25 19 12 6 2 6 14 22 30 36 40 44 47 51 55 57 59 63 64 65 69 74 79 84 84 82 84 83 82 82 81 80 76 66 66 74
57 56 55 48 42 36 29 23 15 8 3 5 13 21 30 36 41 46 50 53 56 60 63 65 69 73 75 78 81 83 84 85 82 81 82 84 82 79 79 78 73 69 65
63 63 55 49 42 35 28 20 14 7 4 11 20 28 34 40 46 51 54 57 60 64 66 67 70 75 76 79 82 85 85 86 87 85 81 75 73 70 70 72 75 75 74
68 62 54 47 40 34 28 21 12 8 10 18 26 34 41 46 50 53 55 58 63 65 67 70 72 73 72 72 74 77 80 82 82 80 78 72 68 65 63 67 72 75 74
64 60 52 45 40 34 24 16 14 14 18 25 32 39 44 49 53 57 60 63 66 69 70 72 74 75 74 68 70 73 76 78 76 75 72 64 59 59 59 64 67 68 65
65 57 50 44 37 28 22 19 18 21 27 32 37 42 48 54 58 61 62 65 67 70 74 77 77 77 74 71 68 68 69 69 71 70 69 63 59 61 60 54 50 48 47
63 55 50 41 32 26 22 22 25 28 33 37 42 47 52 55 58 62 65 67 70 75 77 78 79 78 77 74 69 62 61 60 60 59 58 58 55 48 41 36 35 34 31
62 53 43 35 28 23 25 27 28 32 36 40 45 48 51 56 60 65 68 70 71 74 78 77 79 81 78 74 67 61 56 53 47 47 46 44 38 32 31 31 28 27 22
52 44 35 28 24 25 27 29 30 32 35 39 44 50 55 59 63 67 68 71 71 74 76 76 75 77 78 73 62 59 52 45 39 35 32 29 24 24 29 26 21 19 17
42 34 28 26 25 26 27 26 28 30 35 42 48 53 58 62 67 70 72 74 72 69 71 71 68 70 74 69 52 49 44 37 33 30 24 20 17 16 19 22 20 19 21
36 31 30 29 27 25 25 25 28 34 39 43 47 51 57 61 64 68 70 68 71 71 69 65 61 65 62 62 50 42 37 35 29 27 23 19 15 11 7 12 14 13 12
Wind_Direction_500mb
219 232 233 234 233 229 224 223 223 224 230 238 240 244 249 254 255 256 258 262 257 261 262 262 265 271 278 275 276 275 276 278 277 273 276 276 278 281 283 284 283 283 284
220 242 236 235 238 235 230 225 224 222 224 241 241 244 250 259 263 265 264 264 263 259 263 267 269 272 278 277 278 277 278 278 278 279 272 275 286 284 294 284 288 285 286
194 214 222 228 232 233 232 232 226 219 219 238 243 242 242 256 258 263 266 268 266 265 265 271 273 274 277 279 280 281 281 284 282 285 277 273 274 280 287 280 276 278 285
154 154 161 187 209 225 231 232 229 224 218 216 222 245 243 245 257 266 268 275 277 274 270 269 272 277 278 278 279 280 282 283 283 283 284 280 278 276 286 278 274 280 283
138 129 141 142 149 155 167 188 208 213 217 218 219 235 241 240 245 251 263 271 277 279 279 275 276 278 281 282 282 283 286 288 287 290 288 286 288 283 278 282 286 291 289
133 133 130 126 126 123 120 124 143 175 199 211 216 213 239 237 243 253 261 264 264 275 283 286 283 277 276 279 280 283 286 286 288 289 289 289 286 284 282 287 290 295 293
129 121 119 119 117 115 113 112 113 117 121 133 158 189 206 217 229 246 254 267 274 274 274 274 276 279 279 282 282 284 282 285 283 286 288 288 286 290 292 288 287 293 294
139 134 130 125 119 115 111 110 111 110 109 109 108 107 106 103 96 83 53 359 342 331 322 314 308 302 297 294 290 288 287 287 289 289 288 288 287 287 285 285 287 289 286
146 141 135 131 128 125 120 118 117 115 115 114 112 110 106 96 81 57 12 341 327 321 317 315 313 311 308 304 301 300 299 297 295 294 293 291 289 288 286 284 283 283 282
153 151 145 139 134 130 128 127 124 122 118 117 115 109 103 91 61 22 358 346 339 335 333 330 327 326 323 318 314 310 308 304 302 299 297 294 292 291 291 286 286 277 277
164 159 156 151 146 141 134 131 126 121 120 113 104 90 70 50 23 6 358 349 345 340 337 335 332 329 327 323 320 317 315 312 311 309 305 303 301 296 293 286 285 281 278
167 166 162 156 151 146 140 139 132 127 119 108 96 82 60 42 25 9 357 351 345 340 336 333 330 328 325 323 320 318 317 315 314 313 310 308 306 302 298 292 288 285 279
169 170 166 162 158 153 149 145 139 133 120 99 80 59 34 16 3 354 345 339 334 329 326 326 326 324 323 321 319 317 316 315 314 313 311 310 308 305 303 298 290 282 285
177 172 169 169 166 161 156 147 141 137 124 103 73 30 360 351 345 339 334 331 331 330 327 326 326 326 325 323 320 318 316 314 312 310 308 308 307 306 305 303 298 293 290
180 179 177 175 171 167 161 158 154 152 144 124 39 5 351 347 344 338 333 331 329 328 327 325 324 323 324 322 320 318 317 316 314 313 311 309 307 307 304 301 298 294 292
182 179 181 179 175 172 170 168 164 158 149 85 13 2 354 348 342 337 332 329 327 326 325 324 323 323 323 323 321 320 319 319 318 316 314 312 310 308 306 305 298 290 291
181 185 186 181 178 175 173 169 167 170 183 0 355 348 342 338 335 331 327 324 323 324 323 323 322 321 322 320 319 318 317 317 317 315 314 311 310 309 308 306 305 301 296
185 189 185 182 180 178 176 178 189 205 286 321 327 326 326 325 324 323 321 319 318 318 318 317 316 316 318 318 318 318 318 318 317 316 315 312 311 311 311 310 307 305 303
192 188 186 183 180 181 187 191 204 241 282 305 312 314 315 317 318 317 316 315 313 312 312 312 313 314 316 317 317 317 316 316 316 314 313 315 315 317 316 311 308 307 306
190 184 183 182 186 188 189 207 234 259 282 296 303 309 313 315 315 314 313 311 310 310 310 311 313 313 313 314 315 316 315 315 315 315 315 316 315 312 312 312 312 311 314
181 181 184 187 183 190 208 226 248 272 285 294 301 306 310 312 311 310 310 310 311 311 312 312 312 311 312 313 315 314 314 315 316 316 318 319 319 316 314 312 311 315 315
178 182 180 181 190 203 220 243 263 276 284 293 301 305 308 309 309 309 311 312 312 311 311 311 310 310 310 311 314 315 313 313 313 315 317 317 319 321 325 325 325 323 323
171 174 180 187 199 217 241 258 273 283 291 297 300 303 306 307 308 308 308 307 308 309 309 310 309 309 310 311 316 314 312 312 312 315 318 319 323 328 335 337 341 339 351
171 178 187 201 220 239 254 267 278 287 293 298 303 307 308 307 306 306 308 308 310 310 308 307 305 306 306 309 315 314 313 313 315 319 322 326 333 340 338 336 349 20 25
179 187 201 220 234 248 260 270 281 291 298 304 307 307 308 309 311 310 309 308 308 308 308 306 303 302 302 304 309 306 305 306 314 320 320 322 329 350 21 37 36 57 69
186 199 215 228 237 245 260 274 285 295 300 304 307 309 309 310 310 309 309 308 308 308 308 307 301 299 290 293 296 299 293 295 310 308 306 310 308 331 16 29 31 31 31
Wind_Speed_850mb
15 24 28 33 37 41 42 43 44 43 44 50 51 50 51 50 49 47 45 43 38 41 40 39 40 41 38 42 45 49 53 56 54 62 67 68 74 71 73 73 73 72 73
10 20 26 35 40 42 44 44 44 41 42 50 49 51 49 52 48 47 47 46 44 43 47 47 48 50 47 51 53 57 61 62 65 70 69 64 66 80 74 69 70 66 69
9 8 14 20 26 36 45 49 49 43 39 42 40 44 49 52 44 45 44 43 41 42 44 49 54 55 59 58 61 64 67 71 79 69 72 41 35 47 61 57 59 64 72
10 11 9 12 16 18 23 33 45 47 42 39 34 39 39 40 37 33 35 38 37 34 35 40 45 47 49 52 52 54 54 61 72 74 76 79 85 70 55 55 57 76 81
14 14 15 16 14 13 11 13 24 35 40 39 36 34 35 36 30 26 25 26 30 33 34 35 38 41 43 48 51 52 55 57 68 69 76 76 79 82 85 85 76 87 94
19 20 22 22 21 21 20 19 16 18 22 26 26 24 20 18 22 20 22 26 27 30 34 35 36 39 43 50 52 54 60 62 70 70 75 78 80 80 80 91 98 100 101
23 22 25 32 32 30 29 29 26 26 21 16 13 12 10 12 11 11 14 15 17 20 25 30 35 40 46 51 55 56 62 64 68 72 74 77 84 77 84 89 99 103 106
23 26 31 35 39 39 39 38 37 37 32 28 25 21 18 14 11 8 6 6 11 14 18 20 24 27 32 37 44 51 57 64 68 71 70 77 79 81 84 89 90 95 97
26 26 30 34 36 36 37 35 33 34 31 27 24 21 17 13 9 7 7 9 13 18 23 28 31 34 38 41 46 50 54 58 62 67 72 77 80 81 87 86 86 85 92
29 29 31 34 35 34 34 32 30 28 27 24 20 16 12 9 6 7 9 12 17 21 24 27 30 34 37 41 45 49 52 59 63 67 71 75 76 80 79 85 83 83 90
34 34 35 35 34 33 31 30 27 24 20 18 16 12 9 8 9 11 14 18 21 25 29 33 37 41 44 46 50 52 56 59 63 65 69 74 75 79 79 79 84 82 82
36 37 37 35 34 32 32 28 25 19 16 14 12 10 10 11 12 15 19 23 28 32 36 41 45 48 51 55 58 62 64 68 72 73 76 77 77 80 80 80 82 84 86
38 40 39 37 36 33 29 25 21 17 15 13 11 10 10 13 17 22 26 30 34 38 43 48 52 55 57 60 62 66 69 72 75 77 80 83 82 84 83 81 81 83 84
45 41 38 39 38 34 28 23 19 16 12 9 6 6 10 15 20 24 29 34 38 43 46 50 53 56 58 62 66 69 72 75 78 80 82 83 84 84 84 80 76 75 80
48 46 47 44 39 33 28 24 20 15 10 5 3 7 13 20 26 30 34 38 42 45 49 52 53 55 58 63 68 71 74 77 79 78 79 82 83 83 78 72 77 76 81
52 50 51 46 41 35 30 25 19 12 6 2 6 14 22 30 36 40 44 47 51 55 57 59 63 64 65 69 74 79 84 84 82 84 83 82 82 81 80 76 66 66 74
57 56 55 48 42 36 29 23 15 8 3 5 13 21 30 36 41 46 50 53 56 60 63 65 69 73 75 78 81 83 84 85 82 81 82 84 82 79 79 78 73 69 65
63 63 55 49 42 35 28 20 14 7 4 11 20 28 34 40 46 51 54 57 60 64 66 67 70 75 76 79 82 85 85 86 87 85 81 75 73 70 70 72 75 75 74
68 62 54 47 40 34 28 21 12 8 10 18 26 34 41 46 50 53 55 58 63 65 67 70 72 73 72 72 74 77 80 82 82 80 78 72 68 65 63 67 72 75 74
64 60 52 45 40 34 24 16 14 14 18 25 32 39 44 49 53 57 60 63 66 69 70 72 74 75 74 68 70 73 76 78 76 75 72 64 59 59 59 64 67 68 65
65 57 50 44 37 28 22 19 18 21 27 32 37 42 48 54 58 61 62 65 67 70 74 77 77 77 74 71 68 68 69 69 71 70 69 63 59 61 60 54 50 48 47
63 55 50 41 32 26 22 22 25 28 33 37 42 47 52 55 58 62 65 67 70 75 77 78 79 78 77 74 69 62 61 60 60 59 58 58 55 48 41 36 35 34 31
62 53 43 35 28 23 25 27 28 32 36 40 45 48 51 56 60 65 68 70 71 74 78 77 79 81 78 74 67 61 56 53 47 47 46 44 38 32 31 31 28 27 22
52 44 35 28 24 25 27 29 30 32 35 39 44 50 55 59 63 67 68 71 71 74 76 76 75 77 78 73 62 59 52 45 39 35 32 29 24 24 29 26 21 19 17
42 34 28 26 25 26 27 26 28 30 35 42 48 53 58 62 67 70 72 74 72 69 71 71 68 70 74 69 52 49 44 37 33 30 24 20 17 16 19 22 20 19 21
36 31 30 29 27 25 25 25 28 34 39 43 47 51 57 61 64 68 70 68 71 71 69 65 61 65 62 62 50 42 37 35 29 27 23 19 15 11 7 12 14 13 12
Wind_Direction_850mb
219 232 233 234 233 229 224 223 223 224 230 238 240 244 249 254 255 256 258 262 257 261 262 262 265 271 278 275 276 275 276 278 277 273 276 276 278 281 283 284 283 283 284
220 242 236 235 238 235 230 225 224 222 224 241 241 244 250 259 263 265 264 264 263 259 263 267 269 272 278 277 278 277 278 278 278 279 272 275 286 284 294 284 288 285 286
194 214 222 228 232 233 232 232 226 219 219 238 243 242 242 256 258 263 266 268 266 265 265 271 273 274 277 279 280 281 281 284 282 285 277 273 274 280 287 280 276 278 285
154 154 161 187 209 225 231 232 229 224 218 216 222 245 243 245 257 266 268 275 277 274 270 269 272 277 278 278 279 280 282 283 283 283 284 280 278 276 286 278 274 280 283
138 129 141 142 149 155 167 188 208 213 217 218 219 235 241 240 245 251 263 271 277 279 279 275 276 278 281 282 282 283 286 288 287 290 288 286 288 283 278 282 286 291 289
133 133 130 126 126 123 120 124 143 175 199 211 216 213 239 237 243 253 261 264 264 275 283 286 283 277 276 279 280 283 286 286 288 289 289 289 286 284 282 287 290 295 293
129 121 119 119 117 115 113 112 113 117 121 133 158 189 206 217 229 246 254 267 274 274 274 274 276 279 279 282 282 284 282 285 283 286 288 288 286 290 292 288 287 293 294
139 134 130 125 119 115 111 110 111 110 109 109 108 107 106 103 96 83 53 359 342 331 322 314 308 302 297 294 290 288 287 287 289 289 288 288 287 287 285 285 287 289 286
146 141 135 131 128 125 120 118 117 115 115 114 112 110 106 96 81 57 12 341 327 321 317 315 313 311 308 304 301 300 299 297 295 294 293 291 289 288 286 284 283 283 282
153 151 145 139 134 130 128 127 124 122 118 117 115 109 103 91 61 22 358 346 339 335 333 330 327 326 323 318 314 310 308 304 302 299 297 294 292 291 291 286 286 277 277
164 159 156 151 146 141 134 131 126 121 120 113 104 90 70 50 23 6 358 349 345 340 337 335 332 329 327 323 320 317 315 312 311 309 305 303 301 296 293 286 285 281 278
167 166 162 156 151 146 140 139 132 127 119 108 96 82 60 42 25 9 357 351 345 340 336 333 330 328 325 323 320 318 317 315 314 313 310 308 306 302 298 292 288 285 279
169 170 166 162 158 153 149 145 139 133 120 99 80 59 34 16 3 354 345 339 334 329 326 326 326 324 323 321 319 317 316 315 314 313 311 310 308 305 303 298 290 282 285
177 172 169 169 166 161 156 147 141 137 124 103 73 30 360 351 345 339 334 331 331 330 327 326 326 326 325 323 320 318 316 314 312 310 308 308 307 306 305 303 298 293 290
180 179 177 175 171 167 161 158 154 152 144 124 39 5 351 347 344 338 333 331 329 328 327 325 324 323 324 322 320 318 317 316 314 313 311 309 307 307 304 301 298 294 292
182 179 181 179 175 172 170 168 164 158 149 85 13 2 354 348 342 337 332 329 327 326 325 324 323 323 323 323 321 320 319 319 318 316 314 312 310 308 306 305 298 290 291
181 185 186 181 178 175 173 169 167 170 183 0 355 348 342 338 335 331 327 324 323 324 323 323 322 321 322 320 319 318 317 317 317 315 314 311 310 309 308 306 305 301 296
185 189 185 182 180 178 176 178 189 205 286 321 327 326 326 325 324 323 321 319 318 318 318 317 316 316 318 318 318 318 318 318 317 316 315 312 311 311 311 310 307 305 303
192 188 186 183 180 181 187 191 204 241 282 305 312 314 315 317 318 317 316 315 313 312 312 312 313 314 316 317 317 317 316 316 316 314 313 315 315 317 316 311 308 307 306
190 184 183 182 186 188 189 207 234 259 282 296 303 309 313 315 315 314 313 311 310 310 310 311 313 313 313 314 315 316 315 315 315 315 315 316 315 312 312 312 312 311 314
181 181 184 187 183 190 208 226 248 272 285 294 301 306 310 312 311 310 310 310 311 311 312 312 312 311 312 313 315 314 314 315 316 316 318 319 319 316 314 312 311 315 315
178 182 180 181 190 203 220 243 263 276 284 293 301 305 308 309 309 309 311 312 312 311 311 311 310 310 310 311 314 315 313 313 313 315 317 317 319 321 325 325 325 323 323
171 174 180 187 199 217 241 258 273 283 291 297 300 303 306 307 308 308 308 307 308 309 309 310 309 309 310 311 316 314 312 312 312 315 318 319 323 328 335 337 341 339 351
171 178 187 201 220 239 254 267 278 287 293 298 303 307 308 307 306 306 308 308 310 310 308 307 305 306 306 309 315 314 313 313 315 319 322 326 333 340 338 336 349 20 25
179 187 201 220 234 248 260 270 281 291 298 304 307 307 308 309 311 310 309 308 308 308 308 306 303 302 302 304 309 306 305 306 314 320 320 322 329 350 21 37 36 57 69
186 199 215 228 237 245 260 274 285 295 300 304 307 309 309 310 310 309 309 308 308 308 308 307 301 299 290 293 296 299 293 295 310 308 306 310 308 331 16 29 31 31 31